sat.trackr.live / text

‹ back to catalog

STARLINK-35456

NORAD 65867 · 2025-223P

PAYLOAD ACTIVE UNKNOWN

§ Identity

Operator
Country
US
Launch date
2025-10-03
Launch site
AFWTR
Launch vehicle
Mass (kg)
RCS (m²)

Purposes: comms

External: N2YO · Heavens-Above · Gunter

§ Orbital elements

Epoch: 2026-09-20T06:28:01.831296Z

Period
93.85 min
Inclination
53.1591°
Eccentricity
0.0000553
Mean motion
15.34406420 rev/d
Perigee alt
462.3 km
Apogee alt
463.1 km
Semi-major
6,840.8 km
B*
4.2290e-4
RAAN
108.4588°
Arg perigee
97.6547°
Mean anomaly
262.4519°
Rev number
5,402

§ Raw data

STARLINK-354561 65867U 25223P   26263.26946564  .00013942  00000+0  42290-3 0  99952 65867  53.1591 108.4588 0000553  97.6547 262.4519 15.34406420 54022

JSON: /api/v1/satellites/65867 · /tle

For live sub-satellite position, see the globe view (requires WebGL).

§ Visibility from observer

Set your observer location to see the next 7 days of passes ≥ 10°. The values pass through the URL so the page stays shareable.

No JS? Fill the form by hand. The geolocation button needs JavaScript.